Birmingham, United Kingdom

10:13 PM BST on June 27, 2017 (GMT +0100)
Birmingham

Weather History for EGBB - February, 2013

Change the Weather History Date:

Saturday, February 9, 2013

  Actual Average Record
Temperature  
Mean Temperature 34 °F -  
Max Temperature 37 °F 44 °F 53 °F (2002)
Min Temperature 32 °F 33 °F 24 °F (2001)
Degree Days  
Heating Degree Days 30    
Moisture  
Dew Point 35 °F    
Average Humidity 97    
Maximum Humidity 100    
Minimum Humidity 93    
Precipitation  
Precipitation 0.00 in 0.06 in - ()
Sea Level Pressure  
Sea Level Pressure 30.03 in    
Wind  
Wind Speed 5 mph ()    
Max Wind Speed 8 mph    
Max Gust Speed -    
Visibility 3.8 miles    
Events Rain , Snow    
Averages and records for this station are not official NWS values.
T = Trace of Precipitation, MM = Missing Value Source: Averaged Metar Reports

Daily Weather History Graph

Daily Weather History Graph

Search for Another Location

Airport or City:

Trip Planner

Search our weather history database for the weather conditions in past years. The results will help you decide how hot, cold, wet, or windy it might be!

Date:

Astronomy

Feb. 09, 2013 Rise Set
Actual Time 7:34 AM GMT 5:08 PM GMT
Civil Twilight 6:58 AM GMT 5:44 PM GMT
Nautical Twilight 6:18 AM GMT 6:25 PM GMT
Astronomical Twilight 5:38 AM GMT 7:04 PM GMT
Moon 6:36 AM GMT (2/9) 4:36 PM GMT (2/9)
Length of Visible Light 10h 46m
Length of Day
9h 34m
Waning Crescent, 1% of the Moon is Illuminated
Feb 9
Waning Crescent
Feb 10
New
Feb 17
First Quarter
Feb 25
Full
Mar 4
Last Quarter

Hourly Weather History & Observations

Time (GMT) Temp. Windchill Dew Point Humidity Pressure Visibility Wind Dir Wind Speed Gust Speed Precip Events Conditions
12:20 AM 35.6 °F 32.8 °F 33.8 °F 93% 30.15 in - WNW 3.5 mph - N/A   Clear
12:50 AM 35.6 °F 31.7 °F 33.8 °F 93% 30.15 in 6.2 mi West 4.6 mph - N/A   Partly Cloudy
1:20 AM 37.4 °F 33.8 °F 35.6 °F 93% 30.15 in 5.6 mi WNW 4.6 mph - N/A   Scattered Clouds
1:50 AM 37.4 °F 32.1 °F 35.6 °F 93% 30.15 in 6.2 mi WNW 6.9 mph - N/A   Scattered Clouds
2:20 AM 37.4 °F 33.8 °F 35.6 °F 93% 30.15 in 6.2 mi WNW 4.6 mph - N/A   Light Drizzle
2:50 AM 37.4 °F 32.1 °F 35.6 °F 93% 30.12 in 6.2 mi WNW 6.9 mph - N/A Rain Light Rain
3:20 AM 37.4 °F 32.8 °F 35.6 °F 93% 30.12 in 6.2 mi WNW 5.8 mph - N/A Rain Light Rain
3:50 AM 35.6 °F 30.7 °F 35.6 °F 100% 30.12 in 6.2 mi WNW 5.8 mph - N/A Rain Light Rain
4:20 AM 35.6 °F 31.7 °F 33.8 °F 93% 30.12 in 6.2 mi WNW 4.6 mph - N/A Rain Light Rain
4:50 AM 35.6 °F 30.7 °F 33.8 °F 93% 30.12 in 4.3 mi West 5.8 mph - N/A Rain Light Rain
5:20 AM 35.6 °F 31.7 °F 33.8 °F 93% 30.12 in 3.7 mi WSW 4.6 mph - N/A Rain Light Rain
5:50 AM 33.8 °F 30.8 °F 33.8 °F 100% 30.09 in 3.7 mi WSW 3.5 mph - N/A Rain , Snow Light Rain
6:20 AM 33.8 °F - 33.8 °F 100% 30.09 in - Variable 2.3 mph - N/A Rain , Snow Light Rain
6:50 AM 33.8 °F - 32.0 °F 93% 30.09 in 1.9 mi SSE 2.3 mph - N/A Rain , Snow Light Rain
7:20 AM 33.8 °F 30.8 °F 32.0 °F 93% 30.09 in 0.9 mi South 3.5 mph - N/A Rain , Snow Light Rain
7:50 AM 32.0 °F 28.7 °F 32.0 °F 100% 30.09 in 1.2 mi SSE 3.5 mph - N/A Rain , Snow Light Rain
8:20 AM 32.0 °F 27.5 °F 32.0 °F 100% 30.09 in 1.2 mi SE 4.6 mph - N/A Rain , Snow Light Rain
8:50 AM 32.0 °F 28.7 °F 32.0 °F 100% 30.09 in 1.1 mi SE 3.5 mph - N/A Rain , Snow Light Rain
9:20 AM 32.0 °F 27.5 °F 32.0 °F 100% 30.09 in 1.5 mi SSE 4.6 mph - N/A Rain Light Rain
9:50 AM 32.0 °F 27.5 °F 32.0 °F 100% 30.09 in 4.3 mi SSE 4.6 mph - N/A Rain Light Rain
10:20 AM 33.8 °F 29.6 °F 33.8 °F 100% 30.09 in - SSE 4.6 mph - N/A Rain Light Rain
10:50 AM 33.8 °F 28.6 °F 33.8 °F 100% 30.09 in 5.0 mi SSE 5.8 mph - N/A   Mostly Cloudy
11:20 AM 35.6 °F 30.7 °F 35.6 °F 100% 30.06 in 2.8 mi SSE 5.8 mph - N/A   Mostly Cloudy
11:50 AM 35.6 °F 30.7 °F 35.6 °F 100% 30.06 in 4.3 mi SSE 5.8 mph - N/A   Mostly Cloudy
12:20 PM 35.6 °F 29.9 °F 35.6 °F 100% 30.06 in 5.6 mi SSE 6.9 mph - N/A   Mostly Cloudy
12:50 PM 37.4 °F 32.1 °F 35.6 °F 93% 30.04 in 5.6 mi SSE 6.9 mph - N/A   Mostly Cloudy
1:20 PM 37.4 °F 32.1 °F 37.4 °F 100% 30.04 in 5.6 mi SSE 6.9 mph - N/A   Mostly Cloudy
1:50 PM 37.4 °F 32.8 °F 37.4 °F 100% 30.04 in 5.6 mi SSE 5.8 mph - N/A   Scattered Clouds
2:20 PM 37.4 °F 32.8 °F 37.4 °F 100% 30.01 in 6.2 mi SSE 5.8 mph - N/A   Scattered Clouds
2:50 PM 37.4 °F 32.8 °F 37.4 °F 100% 30.01 in 5.6 mi SSE 5.8 mph - N/A   Mostly Cloudy
3:20 PM 37.4 °F 32.8 °F 37.4 °F 100% 30.01 in 6.2 mi SE 5.8 mph - N/A   Mostly Cloudy
3:50 PM 37.4 °F 32.8 °F 35.6 °F 93% 30.01 in 5.6 mi SE 5.8 mph - N/A   Mostly Cloudy
4:20 PM 37.4 °F 33.8 °F 37.4 °F 100% 29.98 in 5.6 mi SSE 4.6 mph - N/A   Mostly Cloudy
4:50 PM 37.4 °F 32.8 °F 35.6 °F 93% 29.98 in 5.6 mi SE 5.8 mph - N/A   Mostly Cloudy
5:20 PM 37.4 °F 33.8 °F 35.6 °F 93% 29.98 in 5.6 mi SE 4.6 mph - N/A   Mostly Cloudy
5:50 PM 37.4 °F 32.8 °F 35.6 °F 93% 29.98 in 4.3 mi SE 5.8 mph - N/A Rain Light Rain
6:20 PM 37.4 °F 33.8 °F 35.6 °F 93% 29.98 in 3.1 mi SE 4.6 mph - N/A   Mostly Cloudy
6:50 PM 37.4 °F 32.8 °F 35.6 °F 93% 29.95 in - SE 5.8 mph - N/A Rain Light Rain
7:20 PM 37.4 °F 32.8 °F 35.6 °F 93% 29.95 in 1.9 mi SE 5.8 mph - N/A Rain Light Rain
7:50 PM 35.6 °F 29.9 °F 35.6 °F 100% 29.92 in 1.7 mi SSE 6.9 mph - N/A Rain Light Rain
8:20 PM 35.6 °F 29.2 °F 35.6 °F 100% 29.92 in 1.4 mi SSE 8.1 mph - N/A   Mostly Cloudy
8:50 PM 35.6 °F 29.9 °F 35.6 °F 100% 29.89 in 1.0 mi SSE 6.9 mph - N/A Rain Light Rain
9:20 PM 35.6 °F 30.7 °F 35.6 °F 100% 29.89 in 1.0 mi SE 5.8 mph - N/A Rain Light Rain
9:50 PM 35.6 °F 30.7 °F 35.6 °F 100% 29.89 in 0.7 mi ESE 5.8 mph - N/A   Drizzle
10:20 PM 35.6 °F 30.7 °F 35.6 °F 100% 29.86 in 0.9 mi SE 5.8 mph - N/A   Drizzle
10:50 PM 35.6 °F 30.7 °F 35.6 °F 100% 29.86 in 0.8 mi SE 5.8 mph - N/A   Drizzle
11:20 PM 35.6 °F 29.9 °F 35.6 °F 100% 29.83 in 1.0 mi SE 6.9 mph - N/A   Drizzle
11:50 PM 35.6 °F 30.7 °F 35.6 °F 100% 29.83 in 1.6 mi SE 5.8 mph - N/A   Light Drizzle